一网星座-0681星 (ONEWEB-0681)

导读

ONEWEB-0681是英国一网公司(OneWeb)旗下低轨宽带卫星,于2023年5月20日发射,属于OneWeb第二代卫星星座组成部分。该卫星运行在1200公里近地极地轨道,质量约175-200千克,采用Ku波段通信,可为全球偏远及基础设施薄弱地区提供高速互联网接入,第二代卫星还集成定位导航授时功能,进一步拓展服务能力。

Basic Information
目录编号:
56717
目录名称:
ONEWEB-0681
国际标识:
2023-068H
轨道中心:
EARTH
卫星名称:
一网星座-0681星
卫星全名:
一网星座-0681星 (ONEWEB-0681)
卫星状态:
在轨 (已飞行1211 天)
发射日期:
2023-05-20 UTC
国别 :
英国 (GB)
星等 :
--
This satellite is enrolled in the Space Conjunction Data Service (SCDS) and the current flight risk assessment level is: No High Risk
Orbit Information
数据来源 国际轨道数据 AOE轨道数据
星历时间 2026-09-12T00:30:25+0800
15小时前
查看轨道信息
2026-09-10T07:00:00+0800
2天前
查看轨道信息
半长轴 7557.895km 7557.888km
偏心率 0.0002881 0.0002853
轨道倾角 87.927° 87.927°
近地点辐角 93.580° 94.438°
升交点赤经 226.763° 227.105°
平近点角 266.566° 323.962°
近地点 1177.58km 1177.594km
远地点 1181.936km 1181.908km
周期 108.984分钟 108.983分钟
每日圈数 13.213003 13.213022
Detailed Information
平衡模式:
三轴稳定
覆盖范围:
全球
运营商:
一网卫星公司
运营商所在国:
英国
制造商(研发单位):
一网卫星公司
制造商所在国:
英国
使用方式:
暂无
Satellite Introduction
OneWeb卫星网络由648颗重约125公斤的微型卫星组成,运行在1200公里的轨道上。 每颗卫星都能够提供至少每秒8千兆位的吞吐量,以使用其高吞吐量的Ku频段有效载荷为家庭和移动平台提供互联网接入。该卫星仍在工作。
2D Orbit Map
3D Orbit Map
Orbit Altitude Analysis Chart
Orbit Inclination Analysis Chart
Orbit Comprehensive Analysis Chart
View Comprehensive Chart
Conjunction Data List
Event ID Objects TCA Miss Dist (km) Collision Risk Probability Collision Risk Index (CRI) Action
CDM_260919-140405-606805-671721
2026-09-19T
14:04:43+0000
1.344 km
极远距离
9.925709E-7 极低风险 0.35
Miss Distance Evolution Trend with All Objects
Collision Probability Evolution Trend with All Objects